Volver al catálogo

SL-6 R/B(2)

ActivoHEO
NORAD 13090·ROCKET BODY·🇷🇺 Russia

Lanzado Mar 3, 1982 desde Plesetsk Cosmodrome

Loading…

Próximos Pases (próximas 24 horas)

TLE

ActualizadoSource: Space-Track

Época: Sep 13, 2026, 22:37 UTC

1 13090U 82016D   26256.94272867 -.00000315  00000-0  44750-2 0  9998
2 13090  63.9994  93.6520 7222375 358.1350   0.2871  2.03677625330320

Sigue SL-6 R/B(2) en tiempo real con AllMySat

Download on the App Store